Weather History for KTKI - November, 2012

Change the Weather History Date:

Thursday, November 29, 2012

  Actual Average (KADS) Record (KADS)
Temperature  
Mean Temperature 50 °F -  
Max Temperature 64 °F 60 °F 77 °F (2006)
Min Temperature 37 °F 44 °F 30 °F (2001)
Degree Days  
Heating Degree Days 14    
Moisture  
Dew Point 38 °F    
Average Humidity 61    
Maximum Humidity 79    
Minimum Humidity 35    
Precipitation  
Precipitation 0.00 in - - ()
Sea Level Pressure  
Sea Level Pressure 30.21 in    
Wind  
Wind Speed 9 mph (SSE)    
Max Wind Speed 20 mph    
Max Gust Speed 25 mph    
Visibility 10 miles    
Events      
Averages and records for this station are not official NWS values.
T = Trace of Precipitation, MM = Missing Value Source: NWS Daily Summary

Daily Weather History Graph

Daily Weather History Graph

Search for Another Location

Airport or City:

Trip Planner

Search our weather history database for the weather conditions in past years. The results will help you decide how hot, cold, wet, or windy it might be!

Date:

Astronomy

Nov. 29, 2012 Rise Set
Actual Time 7:10 AM CST 5:19 PM CST
Civil Twilight 6:43 AM CST 5:46 PM CST
Nautical Twilight 6:12 AM CST 6:16 PM CST
Astronomical Twilight 5:43 AM CST 6:46 PM CST
Moon 6:23 PM CST (11/29) 7:57 AM CST (11/29)
Length of Visible Light 11h 02m
Length of Day
10h 08m
Full, 99% of the Moon is Illuminated
Nov 29
Full
Dec 6
Last Quarter
Dec 13
New
Dec 19
First Quarter
Dec 28
Full

Hourly Weather History & Observations

Time (CST) Temp. Windchill Dew Point Humidity Pressure Visibility Wind Dir Wind Speed Gust Speed Precip Events Conditions
12:53 AM 44.1 °F 40.1 °F 34.0 °F 68% 30.29 in 10.0 mi South 6.9 mph - N/A   Clear
1:53 AM 44.1 °F 40.8 °F 33.1 °F 65% 30.28 in 10.0 mi South 5.8 mph - N/A   Clear
2:53 AM 42.1 °F 38.4 °F 33.1 °F 70% 30.27 in 10.0 mi South 5.8 mph - N/A   Clear
3:53 AM 42.1 °F 37.1 °F 34.0 °F 73% 30.27 in 10.0 mi SSE 8.1 mph - N/A   Clear
4:53 AM 41.0 °F 39.0 °F 33.1 °F 73% 30.26 in 10.0 mi SSE 3.5 mph - N/A   Clear
5:53 AM 39.0 °F 35.7 °F 33.1 °F 79% 30.27 in 10.0 mi SSE 4.6 mph - N/A   Clear
6:53 AM 37.9 °F 32.7 °F 32.0 °F 79% 30.28 in 10.0 mi SSE 6.9 mph - N/A   Clear
7:53 AM 42.1 °F 38.4 °F 35.1 °F 76% 30.29 in 10.0 mi SSE 5.8 mph - N/A   Clear
8:53 AM 46.9 °F - 39.0 °F 74% 30.28 in 10.0 mi South 9.2 mph - N/A   Clear
9:53 AM 53.1 °F - 39.9 °F 61% 30.28 in 10.0 mi South 15.0 mph - N/A   Clear
10:53 AM 57.0 °F - 39.9 °F 53% 30.27 in 10.0 mi South 15.0 mph - N/A   Clear
11:53 AM 62.1 °F - 39.0 °F 43% 30.23 in 10.0 mi South 15.0 mph - N/A   Clear
12:53 PM 63.0 °F - 37.0 °F 38% 30.19 in 10.0 mi SSE 11.5 mph - N/A   Clear
1:53 PM 64.0 °F - 36.0 °F 35% 30.16 in 10.0 mi SSE 19.6 mph 25.3 mph N/A   Clear
2:53 PM 64.9 °F - 37.9 °F 37% 30.14 in 10.0 mi SSE 16.1 mph - N/A   Clear
3:53 PM 64.0 °F - 39.9 °F 41% 30.13 in 10.0 mi SSE 13.8 mph - N/A   Clear
4:53 PM 63.0 °F - 41.0 °F 45% 30.13 in 10.0 mi SSE 13.8 mph - N/A   Clear
5:53 PM 57.9 °F - 41.0 °F 53% 30.14 in 9.0 mi SSE 8.1 mph - N/A   Clear
6:53 PM 57.9 °F - 41.0 °F 53% 30.16 in 10.0 mi SSE 9.2 mph - N/A   Clear
7:53 PM 55.9 °F - 42.1 °F 60% 30.15 in 10.0 mi SSE 8.1 mph - N/A   Clear
8:53 PM 54.0 °F - 42.1 °F 64% 30.14 in 10.0 mi SSE 5.8 mph - N/A   Clear
9:53 PM 54.0 °F - 44.1 °F 69% 30.15 in 10.0 mi SSE 6.9 mph - N/A   Clear
10:53 PM 54.0 °F - 45.0 °F 72% 30.15 in 10.0 mi South 6.9 mph - N/A   Clear
11:53 PM 53.1 °F - 46.0 °F 77% 30.15 in 10.0 mi South 9.2 mph - N/A   Clear